Tracking 33470 objects as of 12-Mar-2026
HD Live streaming from Space Station
objects crossing your sky now

ATLAS CENTAUR 2 DEB

Track ATLAS CENTAUR 2 DEB now!
10-day predictions


NORAD ID: 739
Int'l Code: 1963-047H
Perigee: 487.0 km
Apogee: 1,418.4 km
Inclination: 30.4 °
Period: 104.0 minutes
Semi major axis: 7323 km
RCS: 0.2965 m2 (medium)
Launch date: November 27, 1963
Source: United States (US)
Launch site: AIR FORCE EASTERN TEST RANGE (AFETR)

Note: This is SATELLITE DEBRIS
Your satellite tracking list
Your tracking list is empty




NASA's NSSDC Master Catalog

Two Line Element Set (TLE):
1 00739U 63047H   26070.89176907  .00000462  00000-0  60079-4 0  9999
2 00739  30.4257 255.3123 0635845 298.9201  54.9058 13.85186299127884
Source of the keplerian elements: AFSPC